Regional Weather Roundup
Issued by NWS

Home | Current Version | Previous Version | Text Only | Print | Product List | Glossary Off
Versions: 1 2 3 4 5 6 7 8 9 10 11 12 13 14 15 16 17 18 19 20 21 22 23 24 25 26 27 28 29 30 31 32 33 34 35 36 37 38 39 40 41 42 43 44 45 46 47 48 49 50

000
ASUS43 KBIS 032320
RWRND

NORTH DAKOTA REGIONAL WEATHER ROUNDUP
NATIONAL WEATHER SERVICE BISMARCK ND
500 PM CST TUE MAR 03 2015

NOTE: "FAIR" INDICATES FEW OR NO CLOUDS BELOW 12,000 FEET WITH NO
SIGNIFICANT WEATHER AND/OR OBSTRUCTIONS TO VISIBILITY.


NDZ001>003-009>011-017-040000-
NORTHWEST NORTH DAKOTA

CITY           SKY/WX    TMP DP  RH WIND       PRES   REMARKS
WILLISTON      MOSUNNY    8  -3  61 NW20G25   30.02S WCI -11
MINOT          CLOUDY     4  -7  60 W29G37    29.97S BLWGSNOWWCI -20
MINOT AFB      PTSUNNY    3  -4  72 NW32G40   29.95S BLWGSNOWWCI -22
$$

NDZ018>021-031>035-040>046-040000-
SOUTHWEST NORTH DAKOTA

CITY           SKY/WX    TMP DP  RH WIND       PRES   REMARKS
BISMARCK       CLOUDY    11   1  64 NW12      30.01S WCI  -3
DICKINSON      MOSUNNY   13  -6  42 W28G37    29.93S WCI  -8
GARRISON         N/A      6  -3  66 NW24G33   29.98R WCI -16
HETTINGER ARPT MOSUNNY   15  -5  40 W21G35    29.96S WCI  -2
$$

NDZ004>008-012>016-024-026-027-054-040000-
NORTHEAST NORTH DAKOTA

CITY           SKY/WX    TMP DP  RH WIND       PRES   REMARKS
GRAND FORKS    CLOUDY     8  -3  61 W24G31    29.92R WCI -13
GRND FRKS AFB  MOSUNNY    6  -6  55 NW20G28   29.92R WCI -13
DEVILS LAKE    MOSUNNY    1  -9  60 NW29G37   29.91S WCI -24
$$

NDZ022-023-025-028>030-036>039-047>053-040000-
SOUTHEAST NORTH DAKOTA

CITY           SKY/WX    TMP DP  RH WIND       PRES   REMARKS
FARGO          FLURRIES  11  -3  53 NW28G33   29.95R WCI -10
JAMESTOWN      PTSUNNY    7  -4  60 NW28G36   29.95R WCI -16
$$




USA.gov is the U.S. government's official web portal to all federal, state and local government web resources and services.